Weather reports worldwide

Advertisment
Wainfleet, United Kingdom (3392): temperature & dewpoint: 12.09.2019 05:00:00 - 18.09.2019 05:00:00 (BST)Wainfleet, United Kingdom (3392): temperature -20cm & temperature -100cm: 12.09.2019 05:00:00 - 18.09.2019 05:00:00 (BST)Wainfleet, United Kingdom (3392): wind speed & gusts: 12.09.2019 05:00:00 - 18.09.2019 05:00:00 (BST)Wainfleet, United Kingdom (3392): wind direction: 12.09.2019 05:00:00 - 18.09.2019 05:00:00 (BST)Wainfleet, United Kingdom (3392): reduced air pressure: 12.09.2019 05:00:00 - 18.09.2019 05:00:00 (BST)Wainfleet, United Kingdom (3392): visibility: 12.09.2019 05:00:00 - 18.09.2019 05:00:00 (BST)Wainfleet, United Kingdom (3392): precipitation: 12.09.2019 05:00:00 - 18.09.2019 05:00:00 (BST)
Date & Time tt [°C] td [°C] tt -20cm [°C] tt -100cm [°C] ff [km/h] ff [kn] fx [km/h] fx [kn] dd ppp [hPa] vv [km] rr [mm]
18.09.2019 05:00:00 5,6 4,8 - - 5 3 - - NW 1029,1 23 -
18.09.2019 04:00:00 5,1 4,6 - - 9 5 - - NW 1029,1 22 0,0
18.09.2019 03:00:00 5,0 4,3 - - 9 5 - - WNW 1029,0 22 0,0
18.09.2019 02:00:00 5,2 4,3 - - 9 5 - - WNW 1029,0 20 0,0
18.09.2019 01:00:00 5,5 4,5 - - 9 5 - - WNW 1028,8 20 0,0
18.09.2019 00:00:00 6,1 4,9 - - 9 5 - - WNW 1028,8 15 0,0
17.09.2019 23:00:00 7,1 5,4 - - 8 4 - - NW 1028,6 23 0,0
17.09.2019 22:00:00 7,6 5,7 - - 11 6 - - NNE 1028,4 25 0,0
17.09.2019 21:00:00 8,4 5,7 - - 11 6 - - N 1028,1 26 0,0
17.09.2019 20:00:00 9,5 6,1 - - 13 7 - - N 1027,6 26 0,0
17.09.2019 19:00:00 11,5 6,5 - - 18 10 - - NNE 1027,2 28 0,0
17.09.2019 18:00:00 12,9 6,4 - - 24 13 - - NNE 1027,0 30 0,0
17.09.2019 17:00:00 13,8 7,1 - - 26 14 - - NNE 1026,6 28 0,0
17.09.2019 16:00:00 14,4 6,9 - - 26 14 - - NNE 1026,5 35 0,0
17.09.2019 15:00:00 15,0 7,3 - - 24 13 - - NNE 1026,2 30 0,0
17.09.2019 14:00:00 14,7 7,3 - - 22 12 - - NNE 1025,8 30 0,0
17.09.2019 13:00:00 15,6 8,5 - - 22 12 - - NNE 1025,7 30 0,0
17.09.2019 12:00:00 15,0 9,4 - - 15 8 - - NNW 1025,5 21 0,0
17.09.2019 11:00:00 13,4 8,8 - - 22 12 - - N 1025,0 30 0,0
17.09.2019 10:00:00 12,2 9,5 15,0 15,2 16 9 - - NNW 1024,6 30 0,0
17.09.2019 09:00:00 9,9 8,7 - - 9 5 - - NW 1024,4 28 0,0
17.09.2019 08:00:00 7,7 7,4 - - 9 5 - - W 1023,8 20 0,0
17.09.2019 07:00:00 6,4 6,1 - - 13 7 - - W 1023,4 12 0,0
17.09.2019 06:00:00 6,9 6,5 - - 15 8 - - W 1023,0 9 0,2
17.09.2019 05:00:00 7,3 7,0 - - 15 8 - - W 1022,8 10 0,0
17.09.2019 04:00:00 7,4 6,9 - - 15 8 - - WNW 1023,0 16 0,0
17.09.2019 03:00:00 7,6 7,2 - - 13 7 - - W 1023,1 14 0,0
17.09.2019 02:00:00 7,6 7,1 - - 13 7 - - W 1022,8 12 0,0
17.09.2019 01:00:00 9,0 8,3 - - 15 8 - - W 1022,6 17 0,0
17.09.2019 00:00:00 9,1 8,7 - - 11 6 - - W 1022,6 4,3 0,0
16.09.2019 23:00:00 10,2 9,6 - - 8 4 - - SSW 1022,7 10 0,0
16.09.2019 22:00:00 11,3 10,6 - - 9 5 - - SSE 1022,7 18 0,0
16.09.2019 21:00:00 10,4 9,7 - - 5 3 - - ESE 1023,2 16 0,0
16.09.2019 20:00:00 11,0 9,9 - - 8 4 - - ESE 1022,7 18 0,0
16.09.2019 19:00:00 13,3 11,3 - - 5 3 - - SE 1022,5 21 0,0
16.09.2019 18:00:00 14,6 11,5 - - 8 4 - - S 1022,2 23 0,0
16.09.2019 17:00:00 14,4 11,3 - - 9 5 - - SSE 1022,1 23 0,0
16.09.2019 16:00:00 14,2 11,2 - - 8 4 - - SE 1022,4 24 0,0
16.09.2019 15:00:00 14,7 11,4 - - 13 7 - - ENE 1022,5 24 0,0
16.09.2019 14:00:00 15,1 11,0 - - 9 5 - - NNW 1022,5 24 0,0
16.09.2019 13:00:00 14,9 11,1 - - 8 4 - - N 1022,3 21 0,0
16.09.2019 12:00:00 13,2 11,9 - - 9 5 - - N 1022,5 17 0,0
16.09.2019 11:00:00 12,9 11,6 - - 11 6 - - N 1022,5 5 0,0
16.09.2019 10:00:00 13,4 12,2 15,2 15,2 9 5 - - N 1022,1 19 0,0
16.09.2019 09:00:00 12,6 12,1 - - 11 6 - - N 1021,9 24 0,0
16.09.2019 08:00:00 12,1 12,0 - - 8 4 - - NNE 1021,4 15 0,0
16.09.2019 07:00:00 11,8 11,7 - - 11 6 - - N 1021,1 3,8 0,2
16.09.2019 06:00:00 11,8 11,7 - - 13 7 - - N 1020,9 2,6 0,4
16.09.2019 05:00:00 12,1 12,0 - - 9 5 - - N 1021,0 7 0,4
16.09.2019 04:00:00 12,3 12,1 - - 8 4 - - NNE 1021,5 4,0 1,4
16.09.2019 03:00:00 12,3 12,0 - - 5 3 - - ENE 1021,8 3,4 0,6
16.09.2019 02:00:00 12,2 11,9 - - 9 5 - - E 1021,9 5 1,6
16.09.2019 01:00:00 12,1 11,6 - - 8 4 - - ENE 1022,5 5 1,2
16.09.2019 00:00:00 12,0 11,4 - - 11 6 - - ENE 1022,6 7 1,2
15.09.2019 23:00:00 12,7 11,1 - - 9 5 - - NE 1022,8 8 0,0
15.09.2019 22:00:00 13,6 11,0 - - 11 6 - - ENE 1022,6 17 0,0
15.09.2019 21:00:00 14,3 11,9 - - 9 5 - - ENE 1022,7 19 0,0
15.09.2019 20:00:00 15,0 10,9 - - 9 5 - - ESE 1022,9 25 0,0
15.09.2019 19:00:00 15,6 12,7 - - 9 5 - - E 1022,7 30 0,0
15.09.2019 18:00:00 16,0 11,5 - - 11 6 - - NE 1022,8 30 0,0
15.09.2019 17:00:00 16,3 11,2 - - 18 10 - - NE 1022,9 35 0,0
15.09.2019 16:00:00 18,3 14,4 - - 9 5 - - WNW 1022,7 30 0,0
15.09.2019 15:00:00 18,5 14,4 - - 18 10 - - WNW 1022,8 30 0,0
15.09.2019 14:00:00 19,4 14,3 - - 15 8 - - W 1022,9 35 0,0
15.09.2019 13:00:00 19,8 14,2 - - 18 10 - - W 1023,1 30 0,0
15.09.2019 12:00:00 19,1 13,7 - - 22 12 - - W 1023,2 30 0,0
15.09.2019 11:00:00 19,5 13,7 - - 24 13 - - WNW 1023,2 30 0,0
15.09.2019 10:00:00 17,0 12,5 15,2 15,2 15 8 - - WSW 1023,1 30 0,0
15.09.2019 09:00:00 14,1 11,0 - - 15 8 - - WSW 1023,1 25 0,0
15.09.2019 08:00:00 12,5 10,0 - - 13 7 - - SW 1022,9 25 0,0
15.09.2019 07:00:00 10,7 9,0 - - 16 9 - - SSW 1022,5 23 0,0
15.09.2019 06:00:00 10,8 9,3 - - 15 8 - - SW 1022,3 19 0,0
15.09.2019 05:00:00 11,4 9,3 - - 18 10 - - SW 1022,4 20 0,0
15.09.2019 04:00:00 12,8 9,6 - - 18 10 - - WSW 1022,9 22 0,0
15.09.2019 03:00:00 10,4 8,4 - - 13 7 - - SW 1023,4 20 0,0
15.09.2019 02:00:00 12,4 8,7 - - 16 9 - - WSW 1024,1 22 0,0
15.09.2019 01:00:00 11,8 8,3 - - 16 9 - - WSW 1024,6 23 0,0
15.09.2019 00:00:00 12,8 8,4 - - 22 12 - - SSW 1024,8 26 0,0
14.09.2019 23:00:00 13,0 8,4 - - 16 9 - - SW 1025,7 28 0,0
14.09.2019 22:00:00 13,0 8,5 - - 18 10 - - SW 1026,0 30 0,0
14.09.2019 21:00:00 12,5 8,9 - - 15 8 - - SW 1026,7 28 0,0
14.09.2019 20:00:00 14,7 9,4 - - 15 8 - - SW 1026,9 30 0,0
14.09.2019 19:00:00 17,2 9,8 - - 15 8 - - SW 1027,4 30 0,0
14.09.2019 18:00:00 20,3 8,0 - - 16 9 - - SSW 1027,6 30 0,0
14.09.2019 17:00:00 19,7 8,8 - - 21 11 - - SSW 1028,3 35 0,0
14.09.2019 16:00:00 21,0 7,4 - - 22 12 - - SW 1029,3 29 0,0
14.09.2019 15:00:00 20,0 8,0 - - 22 12 - - SSW 1030,3 30 0,0
14.09.2019 14:00:00 18,9 7,7 - - 22 12 - - S 1031,3 30 0,0
14.09.2019 13:00:00 18,4 9,1 - - 18 10 - - SSW 1032,3 35 0,0
14.09.2019 12:00:00 17,4 9,5 - - 21 11 - - SSW 1033,4 35 0,0
14.09.2019 11:00:00 16,5 8,7 - - 18 10 - - SSW 1033,9 30 0,0
14.09.2019 10:00:00 14,7 9,6 15,4 15,2 11 6 - - WSW 1034,3 27 0,0
14.09.2019 09:00:00 12,8 10,4 - - 9 5 - - WSW 1034,3 22 0,0
14.09.2019 08:00:00 10,5 9,6 - - 13 7 - - WSW 1034,4 22 0,0
14.09.2019 07:00:00 7,4 6,7 - - 11 6 - - W 1034,7 18 0,0
14.09.2019 06:00:00 8,3 7,9 - - 9 5 - - WSW 1034,7 17 0,0
14.09.2019 05:00:00 7,3 6,8 - - 9 5 - - SW 1035,3 19 0,0
14.09.2019 04:00:00 7,4 6,4 - - 8 4 - - SW 1035,8 14 0,0
14.09.2019 03:00:00 8,8 8,0 - - 8 4 - - SW 1036,2 20 0,0
14.09.2019 02:00:00 8,9 8,2 - - 11 6 - - SSW 1036,3 12 0,0
14.09.2019 01:00:00 8,7 8,0 - - 5 3 - - SSE 1036,6 18 0,0
14.09.2019 00:00:00 10,2 9,2 - - 8 4 - - E 1036,5 22 0,0
13.09.2019 23:00:00 9,4 8,3 - - 9 5 - - E 1036,6 24 0,0
13.09.2019 22:00:00 9,9 8,2 - - 9 5 - - E 1036,8 26 0,0
13.09.2019 21:00:00 10,4 8,4 - - 8 4 - - E 1036,6 30 0,0
13.09.2019 20:00:00 11,5 8,5 - - 11 6 - - ESE 1035,9 30 0,0
13.09.2019 19:00:00 14,3 9,4 - - 13 7 - - E 1036,0 35 0,0
13.09.2019 18:00:00 15,5 9,4 - - 13 7 - - E 1035,8 35 0,0
13.09.2019 17:00:00 16,2 9,6 - - 16 9 - - E 1035,7 40 0,0
13.09.2019 16:00:00 17,1 8,7 - - 16 9 - - E 1035,9 35 0,0
13.09.2019 15:00:00 17,7 8,2 - - 15 8 - - ENE 1035,5 35 0,0
13.09.2019 14:00:00 18,2 8,7 - - 16 9 - - ENE 1035,5 40 0,0
13.09.2019 13:00:00 17,7 7,4 - - 5 3 - - NNW 1035,7 35 0,0
13.09.2019 12:00:00 16,3 7,6 - - 11 6 - - NNW 1035,6 30 0,0
13.09.2019 11:00:00 15,8 7,8 - - 13 7 - - N 1035,4 35 0,0
13.09.2019 10:00:00 14,2 7,9 15,7 15,2 16 9 - - NNW 1035,1 30 0,0
13.09.2019 09:00:00 12,9 8,5 - - 13 7 - - NW 1034,5 30 0,0
13.09.2019 08:00:00 10,1 8,5 - - 9 5 - - W 1033,7 29 0,0
13.09.2019 07:00:00 7,9 6,4 - - 9 5 - - W 1032,9 25 0,0
13.09.2019 06:00:00 9,5 7,4 - - 13 7 - - NW 1031,8 30 0,0
13.09.2019 05:00:00 10,3 7,6 - - 11 6 - - NW 1031,1 30 0,0
13.09.2019 04:00:00 12,2 9,3 - - 13 7 - - NW 1030,6 28 0,0
13.09.2019 03:00:00 13,2 11,2 - - 13 7 - - NW 1029,5 27 0,0
13.09.2019 02:00:00 14,7 13,1 - - 15 8 - - WNW 1028,7 19 0,0
13.09.2019 01:00:00 16,1 14,0 - - 13 7 - - NW 1027,9 17 0,0
13.09.2019 00:00:00 17,5 15,5 - - 21 11 - - W 1026,9 15 0,0
12.09.2019 23:00:00 17,8 15,2 - - 21 11 - - WSW 1026,3 16 0,0
12.09.2019 22:00:00 18,8 14,4 - - 16 9 - - W 1025,6 19 0,0
12.09.2019 21:00:00 19,9 14,0 - - 21 11 - - WSW 1025,0 20 0,0
12.09.2019 20:00:00 20,5 14,5 - - 24 13 - - WSW 1024,2 20 0,0
12.09.2019 19:00:00 21,0 15,4 - - 26 14 - - SW 1023,7 23 0,0
12.09.2019 18:00:00 21,9 15,8 - - 31 17 50 27 WSW 1023,1 18 0,0
12.09.2019 17:00:00 23,4 15,9 - - 34 18 50 27 SW 1022,6 15 0,0
12.09.2019 16:00:00 23,1 16,4 - - 37 20 52 28 WSW 1023,0 15 0,0
12.09.2019 15:00:00 23,3 16,5 - - 28 15 48 26 WSW 1023,2 21 0,0
12.09.2019 14:00:00 22,5 15,3 - - 29 16 - - WSW 1023,6 21 0,0
12.09.2019 13:00:00 21,5 14,5 - - 35 19 48 26 SW 1023,9 18 0,0
12.09.2019 12:00:00 21,0 15,1 - - 29 16 - - SW 1024,4 16 0,0
12.09.2019 11:00:00 18,5 13,2 - - 26 14 - - SW 1024,7 17 0,0
12.09.2019 10:00:00 16,9 13,0 15,2 15,2 24 13 - - WSW 1024,8 9 0,0
12.09.2019 09:00:00 15,2 12,4 - - 21 11 - - WSW 1024,4 8 0,0
12.09.2019 08:00:00 12,3 11,3 - - 11 6 - - SW 1024,2 17 0,0
12.09.2019 07:00:00 10,2 9,5 - - 11 6 - - SW 1023,9 12 0,0
12.09.2019 06:00:00 10,1 9,2 - - 11 6 - - SW 1023,3 11 0,0
12.09.2019 05:00:00 10,6 9,5 - - 13 7 - - SW 1022,9 15 0,0

tt = temperature
td = dewpoint
tt -20cm = temperature -20cm
tt -100cm = temperature -100cm
ff = wind speed
fx = gusts
dd = wind direction
ppp = reduced air pressure
vv = visibility
rr = precipitation

Next stations